Location: ?????????
(54.7630°N, 39.4991°E)
Time: 08:07:33
(UTC+00:00)

Cosmos 1606 Rocket - Pass Details

Date: 14 April 2026
Orbit: 595 x 625 km, 82.5° (Epoch: 9 May)

Event Time Altitude Azimuth Distance (km) Brightness Sun altitude
Exits shadow 23:37:13 47° 225° (SW) 831 3.7 -19.6°
Maximum altitude 23:38:18 65° 284° (WNW) 691 3.6 -19.5°
Drops below altitude 10° 23:42:43 10° 7° (N) 2,005 7.1 -19.1°
Sets 23:44:58 0° 11° (N) 2,912 8.1 -18.9°
